User: anonymous   Login
Location: Haliburton Scout Reserve
(45.0900°N, 78.3200°W)
Time: 10:54:37
(UTC-05:00)
Language:

IDEFIX/ARIANE 42P - Orbit

View from above orbital plane
View from above orbital plane
View from above satellite
View from above satellite

Ground track
Ground track

The orbit data is extracted from the following two-line orbital elements,

1 27422U 02021B   17051.10783345 -.00000039  00000-0  54046-6 0  9995
2 27422  98.2289  57.8639 0011476 219.8496 140.1846 14.29251568769956
Epoch (UTC): 20 February 2017 02:35:16
Eccentricity: 0.0011476
inclination: 98.2289°
perigee height: 786 km
apogee height: 802 km
right ascension of ascending node: 57.8639°
argument of perigee: 219.8496°
revolutions per day: 14.29251568
mean anomaly at epoch: 140.1846°
orbit number at epoch: 76995

The dashed part of the orbit path shows where the satellite is in the earth's shadow,  

DLR